Regional Weather Roundup
Issued by NWS Kansas City/Pleasant Hill, MO

Home | Current Version | Previous Version | Text Only | Print | Product List | Glossary On
Versions: 1 2 3 4 5 6 7 8 9 10 11 12 13 14 15 16 17 18 19 20 21 22 23 24 25 26 27
000
ASUS43 KEAX 261410
RWREAX

WEATHER ROUNDUP FOR EASTERN KANSAS AND NORTHWEST MISSOURI
NATIONAL WEATHER SERVICE KANSAS CITY/PLEASANT HILL MO
900 AM CDT MON SEP 26 2016

KSZ040-057-103>105-MOZ028-029-037-043-261500-
...KANSAS CITY METROPOLITAN AREA...

CITY           SKY/WX    TMP DP  RH WIND       PRES   REMARKS
K.C. INTL      SUNNY     54  45  71 W8        30.26R
K.C. DOWNTOWN  SUNNY     57  45  64 NW8       30.26R
LEES SUMMIT    SUNNY     57  48  72 W6        30.26R
OLATHE - IXD   SUNNY     54  47  77 NW8       30.28R
OLATHE - OJC   SUNNY     56  43  61 NW8       30.27R
LAWRENCE       SUNNY     53  50  89 W9        30.29R

$$

MOZ001>008-011>017-020>025-030>033-038>040-044>046-053-054-261500-
...NORTHERN AND CENTRAL MISSOURI...

CITY           SKY/WX    TMP DP  RH WIND       PRES   REMARKS
ST. JOSEPH     SUNNY     53  46  77 CALM      30.26S
MOSBY          SUNNY     55  48  76 W6        30.26R
WHITEMAN AFB   MOSUNNY   57  49  74 NW6       30.23S
CLINTON        SUNNY     55  50  82 NW5       30.25S
SEDALIA        SUNNY     60  49  66 NW8       30.25R
WARSAW         NOT AVBL
CHILLICOTHE      N/A     57  45  64 W3        30.23F
KIRKSVILLE     SUNNY     55  45  68 W6        30.20S

$$

MOZ041-047>049-056>058-063>065-088>090-097-261500-
...EASTERN AND SOUTHERN MISSOURI...

CITY           SKY/WX    TMP DP  RH WIND       PRES   REMARKS
ST. LOUIS INTL CLOUDY    62  55  77 NW7       30.17S
SPIRIT OF STL  CLOUDY    61  56  83 NW7       30.17S
COLUMBIA       SUNNY     60  52  74 NW8       30.22R
JEFFERSON CITY SUNNY     60  54  80 W6        30.21S
ROLLA          MOSUNNY   58  55  90 NW7       30.20R
OSAGE BEACH    MOSUNNY   59  53  80 VRB5      30.23S
SPRINGFIELD    MOSUNNY   60  55  83 N8        30.23S
BRANSON        PTSUNNY   59  57  94 NW5       30.24R
JOPLIN         SUNNY     59  54  83 N7        30.27R
WEST PLAINS    CLOUDY    60  55  83 N3        30.22R

$$

IAZ060-094-KSZ022-034>040-054-083-096-NEZ052-066-093-261500-
...KANSAS...SOUTHEAST NEBRASKA AND IOWA...

CITY           SKY/WX    TMP DP  RH WIND       PRES   REMARKS
TOPEKA         SUNNY     53  46  77 W5        30.29R
MANHATTAN      SUNNY     51  46  83 SW5       30.31R
EMPORIA        SUNNY     53  47  79 NW6       30.30R
CHANUTE        SUNNY     58  49  72 N7        30.28S
WICHITA        MOSUNNY   56  46  69 N7        30.32R
OMAHA          SUNNY     56  40  55 W6        30.24S
LINCOLN        SUNNY     53  43  68 CALM      30.28S
FALLS CITY     SUNNY     52  44  74 W7        30.25S
LAMONI         SUNNY     54  44  69 W8        30.21R
DES MOINES     SUNNY     57  41  55 W10       30.16S

$$





USA.gov is the U.S. government's official web portal to all federal, state and local government web resources and services.